• en France
  • Liste des pays
  • À 7 jours
  • Température de l'eau
  • Carte satellitaire
  • Carte météo
  • Widgets météo
  • user-avatar
    Se connecter

    Météo par heure à Pinsk

    Ce jour, 16 Janvier, Mardi

    Heure Température Précipitation Vent Pression Humidité
    00:00 -11°C° 0 mm 4 m/s 756 mmHg 62%
    01:00 -12°C° 0 mm 4 m/s 755 mmHg 62%
    02:00 -12°C° 0 mm 4 m/s 755 mmHg 64%
    03:00 -12°C° 0 mm 4 m/s 754 mmHg 64%
    04:00 -12°C° 0 mm 4 m/s 754 mmHg 63%
    05:00 -13°C° 0 mm 5 m/s 753 mmHg 62%
    06:00 -13°C° 0 mm 5 m/s 752 mmHg 61%
    07:00 -13°C° 0 mm 5 m/s 751 mmHg 60%
    08:00 -14°C° 0 mm 5 m/s 751 mmHg 60%
    09:00 -13°C° 0 mm 5 m/s 750 mmHg 56%
    10:00 -12°C° 0 mm 5 m/s 750 mmHg 53%
    11:00 -12°C° 0 mm 6 m/s 749 mmHg 50%
    12:00 -11°C° 0 mm 6 m/s 748 mmHg 47%
    13:00 -10°C° 0 mm 6 m/s 747 mmHg 44%
    14:00 -10°C° 0 mm 6 m/s 746 mmHg 41%
    15:00 -10°C° 0 mm 6 m/s 745 mmHg 43%
    16:00 -10°C° 0 mm 6 m/s 744 mmHg 45%
    17:00 -11°C° 0 mm 6 m/s 743 mmHg 47%
    18:00 -11°C° 0 mm 6 m/s 743 mmHg 51%
    19:00 -11°C° 0 mm 6 m/s 742 mmHg 54%
    20:00 -11°C° 0 mm 6 m/s 741 mmHg 58%
    21:00 -12°C° 0 mm 7 m/s 740 mmHg 60%
    22:00 -12°C° 0 mm 7 m/s 739 mmHg 63%
    23:00 -12°C° 0 mm 7 m/s 738 mmHg 65%

    Demain, 17 Janvier, Mercredi

    Heure Température Précipitation Vent Pression Humidité
    00:00 -11°C° 0,1 mm 7 m/s 737 mmHg 70%
    01:00 -11°C° 0,1 mm 7 m/s 736 mmHg 76%
    02:00 -11°C° 0,1 mm 7 m/s 736 mmHg 81%
    03:00 -9°C° 0,5 mm 6 m/s 735 mmHg 84%
    04:00 -9°C° 0,5 mm 6 m/s 733 mmHg 87%
    05:00 -9°C° 0,5 mm 6 m/s 732 mmHg 90%
    06:00 -8°C° 0,5 mm 6 m/s 732 mmHg 91%
    07:00 -8°C° 0,5 mm 6 m/s 731 mmHg 91%
    08:00 -6°C° 0,5 mm 6 m/s 730 mmHg 92%
    09:00 -5°C° 0,5 mm 6 m/s 730 mmHg 90%
    10:00 -4°C° 0,5 mm 7 m/s 730 mmHg 88%
    11:00 -3°C° 0,5 mm 7 m/s 730 mmHg 86%
    12:00 -3°C° 0,2 mm 6 m/s 730 mmHg 85%
    13:00 -2°C° 0,2 mm 6 m/s 730 mmHg 83%
    14:00 -2°C° 0,2 mm 6 m/s 730 mmHg 82%
    15:00 -2°C° 0 mm 5 m/s 731 mmHg 85%
    16:00 -2°C° 0 mm 4 m/s 731 mmHg 87%
    17:00 -2°C° 0 mm 3 m/s 731 mmHg 89%
    18:00 -2°C° 0 mm 3 m/s 732 mmHg 90%
    19:00 -4°C° 0 mm 3 m/s 732 mmHg 91%
    20:00 -3°C° 0 mm 2 m/s 732 mmHg 93%
    21:00 -3°C° 0 mm 2 m/s 733 mmHg 93%
    22:00 -3°C° 0 mm 2 m/s 733 mmHg 93%
    23:00 -1°C° 0 mm 1 m/s 733 mmHg 94%

    Après-demain, 18 Janvier, Jeudi

    Heure Température Précipitation Vent Pression Humidité
    00:00 -2°C° 0 mm 1 m/s 733 mmHg 93%
    01:00 -2°C° 0 mm 1 m/s 734 mmHg 93%
    02:00 -2°C° 0 mm 1 m/s 734 mmHg 93%
    03:00 -4°C° 0 mm 2 m/s 734 mmHg 93%
    04:00 -4°C° 0 mm 2 m/s 734 mmHg 94%
    05:00 -5°C° 0 mm 3 m/s 734 mmHg 94%
    06:00 -5°C° 0 mm 3 m/s 734 mmHg 94%
    07:00 -5°C° 0 mm 3 m/s 734 mmHg 95%
    08:00 -6°C° 0 mm 3 m/s 735 mmHg 95%
    09:00 -5°C° 0 mm 3 m/s 735 mmHg 93%
    10:00 -4°C° 0 mm 4 m/s 735 mmHg 91%
    11:00 -5°C° 0 mm 5 m/s 735 mmHg 89%
    12:00 -4°C° 0 mm 5 m/s 735 mmHg 87%
    13:00 -4°C° 0 mm 5 m/s 735 mmHg 86%
    14:00 -4°C° 0 mm 5 m/s 735 mmHg 84%
    15:00 -4°C° 0 mm 4 m/s 735 mmHg 85%
    16:00 -4°C° 0 mm 4 m/s 736 mmHg 87%
    17:00 -4°C° 0 mm 3 m/s 736 mmHg 88%
    18:00 -4°C° 0 mm 3 m/s 736 mmHg 88%
    19:00 -4°C° 0 mm 2 m/s 735 mmHg 89%
    20:00 -4°C° 0 mm 2 m/s 735 mmHg 89%
    21:00 -4°C° 0 mm 2 m/s 735 mmHg 89%
    22:00 -4°C° 0 mm 2 m/s 734 mmHg 90%
    23:00 -5°C° 0 mm 3 m/s 733 mmHg 90%

    19 Janvier, Vendredi

    Heure Température Précipitation Vent Pression Humidité
    00:00 -5°C° 0,2 mm 3 m/s 732 mmHg 91%
    01:00 -5°C° 0,2 mm 4 m/s 731 mmHg 91%
    02:00 -5°C° 0,2 mm 4 m/s 731 mmHg 92%
    03:00 -6°C° 0,7 mm 5 m/s 730 mmHg 92%
    04:00 -6°C° 0,7 mm 5 m/s 730 mmHg 93%
    05:00 -5°C° 0,7 mm 5 m/s 729 mmHg 94%
    06:00 -4°C° 0,3 mm 4 m/s 730 mmHg 93%
    07:00 -4°C° 0,3 mm 4 m/s 730 mmHg 93%
    08:00 -4°C° 0,3 mm 4 m/s 730 mmHg 93%
    09:00 -4°C° 0,1 mm 4 m/s 731 mmHg 93%
    10:00 -4°C° 0,1 mm 4 m/s 731 mmHg 92%
    11:00 -4°C° 0,1 mm 4 m/s 732 mmHg 92%
    12:00 -4°C° 0,2 mm 4 m/s 733 mmHg 91%
    13:00 -4°C° 0,2 mm 4 m/s 734 mmHg 90%
    14:00 -4°C° 0,2 mm 4 m/s 735 mmHg 89%
    15:00 -5°C° 0,1 mm 4 m/s 736 mmHg 90%
    16:00 -5°C° 0,1 mm 4 m/s 737 mmHg 90%
    17:00 -5°C° 0,1 mm 3 m/s 738 mmHg 90%
    18:00 -6°C° 0 mm 3 m/s 739 mmHg 91%
    19:00 -7°C° 0 mm 3 m/s 740 mmHg 93%
    20:00 -7°C° 0 mm 2 m/s 741 mmHg 94%
    21:00 -7°C° 0 mm 2 m/s 741 mmHg 94%
    22:00 -7°C° 0 mm 2 m/s 742 mmHg 94%
    23:00 -8°C° 0 mm 2 m/s 743 mmHg 95%

    20 Janvier, Samedi

    Heure Température Précipitation Vent Pression Humidité
    00:00 -8°C° 0 mm 2 m/s 743 mmHg 95%
    01:00 -8°C° 0 mm 2 m/s 743 mmHg 95%
    02:00 -7°C° 0 mm 1 m/s 744 mmHg 95%
    03:00 -8°C° 0 mm 1 m/s 744 mmHg 95%
    04:00 -8°C° 0 mm 1 m/s 744 mmHg 94%
    05:00 -8°C° 0 mm 1 m/s 744 mmHg 94%
    06:00 -8°C° 0 mm 1 m/s 744 mmHg 94%
    07:00 -8°C° 0 mm 1 m/s 745 mmHg 94%
    08:00 -8°C° 0 mm 1 m/s 745 mmHg 94%
    09:00 -7°C° 0 mm 1 m/s 745 mmHg 93%
    10:00 -6°C° 0 mm 1 m/s 745 mmHg 92%
    11:00 -4°C° 0 mm 1 m/s 746 mmHg 91%
    12:00 -4°C° 0 mm 1 m/s 746 mmHg 90%
    13:00 -5°C° 0 mm 2 m/s 746 mmHg 89%
    14:00 -5°C° 0 mm 2 m/s 745 mmHg 88%
    15:00 -5°C° 0 mm 2 m/s 745 mmHg 90%
    16:00 -6°C° 0 mm 2 m/s 745 mmHg 91%
    17:00 -6°C° 0 mm 2 m/s 745 mmHg 93%
    18:00 -6°C° 0 mm 2 m/s 746 mmHg 93%
    19:00 -7°C° 0 mm 3 m/s 746 mmHg 93%
    20:00 -7°C° 0 mm 3 m/s 746 mmHg 93%
    21:00 -7°C° 0,1 mm 3 m/s 746 mmHg 93%
    22:00 -7°C° 0,1 mm 3 m/s 746 mmHg 93%
    23:00 -7°C° 0,1 mm 3 m/s 746 mmHg 93%

    21 Janvier, Dimanche

    Heure Température Précipitation Vent Pression Humidité
    00:00 -7°C° 0,1 mm 3 m/s 746 mmHg 93%
    01:00 -7°C° 0,1 mm 3 m/s 746 mmHg 93%
    02:00 -8°C° 0,1 mm 4 m/s 746 mmHg 93%
    03:00 -8°C° 0,1 mm 4 m/s 746 mmHg 93%
    04:00 -8°C° 0,1 mm 4 m/s 746 mmHg 93%
    05:00 -8°C° 0,1 mm 4 m/s 746 mmHg 93%
    06:00 -8°C° 0,1 mm 4 m/s 746 mmHg 93%
    07:00 -8°C° 0,1 mm 4 m/s 746 mmHg 93%
    08:00 -8°C° 0,1 mm 4 m/s 746 mmHg 93%
    09:00 -8°C° 0,1 mm 4 m/s 746 mmHg 92%
    10:00 -8°C° 0,1 mm 5 m/s 746 mmHg 91%
    11:00 -7°C° 0,1 mm 5 m/s 746 mmHg 90%
    12:00 -7°C° 0,1 mm 5 m/s 746 mmHg 89%
    13:00 -7°C° 0,1 mm 5 m/s 746 mmHg 89%
    14:00 -7°C° 0,1 mm 5 m/s 745 mmHg 88%
    15:00 -7°C° 0,1 mm 5 m/s 745 mmHg 88%
    16:00 -7°C° 0,1 mm 5 m/s 745 mmHg 88%
    17:00 -7°C° 0,1 mm 5 m/s 745 mmHg 88%
    18:00 -8°C° 0 mm 5 m/s 745 mmHg 88%
    19:00 -8°C° 0 mm 5 m/s 745 mmHg 88%
    20:00 -8°C° 0 mm 5 m/s 746 mmHg 88%
    21:00 -8°C° 0 mm 5 m/s 746 mmHg 87%
    22:00 -8°C° 0 mm 5 m/s 746 mmHg 87%
    23:00 -10°C° 0 mm 5 m/s 746 mmHg 87%
    Voir plus